GAVVC EGBO-EGBO

Flight info

Callsign GAVVC
Flight time 0h 14m
Altitude 1000
Route VFR CIRCUITS
Aircraft C172/L-SGY/S

Departure

Time 2026-04-20 19:54
Airport Wolverhampton Halfpenny Green Airport (EGBO)

Arrival

Time 2026-04-20 20:09
Airport Wolverhampton Halfpenny Green Airport (EGBO)
Time Latitude Longitude Altitude Speed Heading
2026-04-20 19:43 52.51555 -2.26086 272 ft 0 kts 256°
2026-04-20 19:46 52.51555 -2.26085 272 ft 0 kts 256°
2026-04-20 19:47 52.51554 -2.26092 267 ft 1 kts 256°
2026-04-20 19:47 52.51548 -2.26111 266 ft 6 kts 232°
2026-04-20 19:47 52.51513 -2.26165 271 ft 6 kts 234°
2026-04-20 19:47 52.51508 -2.26207 271 ft 6 kts 303°
2026-04-20 19:48 52.51518 -2.26279 270 ft 8 kts 276°
2026-04-20 19:48 52.51525 -2.26381 269 ft 10 kts 275°
2026-04-20 19:48 52.51534 -2.26510 267 ft 12 kts 275°
2026-04-20 19:48 52.51542 -2.26665 264 ft 15 kts 273°
2026-04-20 19:49 52.51599 -2.26700 260 ft 14 kts 38°
2026-04-20 19:49 52.51667 -2.26619 264 ft 11 kts 37°
2026-04-20 19:49 52.51706 -2.26520 265 ft 12 kts 95°
2026-04-20 19:49 52.51695 -2.26375 267 ft 13 kts 97°
2026-04-20 19:50 52.51686 -2.26231 269 ft 12 kts 97°
2026-04-20 19:50 52.51669 -2.26102 273 ft 10 kts 108°
2026-04-20 19:50 52.51671 -2.26089 273 ft 0 kts 350°
2026-04-20 19:52 52.51674 -2.26085 273 ft 1 kts 88°
2026-04-20 19:52 52.51670 -2.26036 276 ft 7 kts 96°
2026-04-20 19:52 52.51665 -2.25968 277 ft 0 kts 96°
2026-04-20 19:53 52.51657 -2.25915 277 ft 8 kts 107°
2026-04-20 19:53 52.51664 -2.25898 275 ft 0 kts 332°
2026-04-20 19:53 52.51740 -2.25954 279 ft 39 kts 335°
2026-04-20 19:53 52.52127 -2.26227 395 ft 67 kts 348°
2026-04-20 19:54 52.52553 -2.26492 646 ft 71 kts 348°
2026-04-20 19:54 52.53001 -2.26817 941 ft 71 kts 322°
2026-04-20 19:54 52.53091 -2.27667 1157 ft 82 kts 259°
2026-04-20 19:54 52.52966 -2.28614 1327 ft 89 kts 254°
2026-04-20 19:55 52.52584 -2.29398 1399 ft 88 kts 192°
2026-04-20 19:55 52.51976 -2.29393 1404 ft 90 kts 160°
2026-04-20 19:55 52.51369 -2.29188 1447 ft 89 kts 155°
2026-04-20 19:55 52.50763 -2.28907 1418 ft 94 kts 152°
2026-04-20 19:56 52.50131 -2.28561 1401 ft 97 kts 152°
2026-04-20 19:56 52.49496 -2.28200 1425 ft 95 kts 152°
2026-04-20 19:56 52.48890 -2.27778 1429 ft 93 kts 144°
2026-04-20 19:56 52.48547 -2.27048 1410 ft 71 kts 96°
2026-04-20 19:57 52.48667 -2.26373 1311 ft 61 kts 64°
2026-04-20 19:57 52.48877 -2.25752 1192 ft 64 kts 66°
2026-04-20 19:57 52.49098 -2.25123 1046 ft 64 kts 57°
2026-04-20 19:57 52.49516 -2.24772 902 ft 76 kts 10°
2026-04-20 19:58 52.50053 -2.24809 741 ft 77 kts 352°
2026-04-20 19:58 52.50537 -2.25098 589 ft 72 kts 348°
2026-04-20 19:58 52.51001 -2.25415 413 ft 73 kts 345°
2026-04-20 19:58 52.51452 -2.25745 286 ft 64 kts 336°
2026-04-20 19:59 52.51800 -2.25998 280 ft 54 kts 337°
2026-04-20 19:59 52.52222 -2.26314 464 ft 67 kts 347°
2026-04-20 19:59 52.52675 -2.26588 725 ft 72 kts 348°
2026-04-20 19:59 52.53034 -2.27120 981 ft 80 kts 284°
2026-04-20 20:00 52.52891 -2.27984 1234 ft 85 kts 241°
2026-04-20 20:00 52.52540 -2.28829 1267 ft 93 kts 212°
2026-04-20 20:00 52.51946 -2.29076 1263 ft 86 kts 155°
2026-04-20 20:00 52.51343 -2.28856 1268 ft 91 kts 157°
2026-04-20 20:01 52.50729 -2.28577 1251 ft 95 kts 153°
2026-04-20 20:01 52.50116 -2.28225 1296 ft 93 kts 150°
2026-04-20 20:01 52.49526 -2.27838 1365 ft 90 kts 149°
2026-04-20 20:01 52.49029 -2.27342 1404 ft 71 kts 114°
2026-04-20 20:02 52.49130 -2.26638 1275 ft 69 kts 61°
2026-04-20 20:02 52.49346 -2.25965 1134 ft 62 kts 69°
2026-04-20 20:02 52.49520 -2.25309 954 ft 65 kts 62°
2026-04-20 20:02 52.49951 -2.24989 780 ft 76 kts 10°
2026-04-20 20:03 52.50468 -2.25051 642 ft 75 kts 354°
2026-04-20 20:03 52.50946 -2.25383 453 ft 72 kts 343°
2026-04-20 20:03 52.51398 -2.25706 290 ft 66 kts 336°
2026-04-20 20:03 52.51749 -2.25961 279 ft 56 kts 335°
2026-04-20 20:04 52.52177 -2.26218 478 ft 65 kts 355°
2026-04-20 20:04 52.52624 -2.26380 723 ft 66 kts
2026-04-20 20:04 52.52987 -2.26848 939 ft 77 kts 285°
2026-04-20 20:04 52.52929 -2.27720 1201 ft 79 kts 254°
2026-04-20 20:05 52.52732 -2.28634 1284 ft 91 kts 225°
2026-04-20 20:05 52.52165 -2.28984 1304 ft 86 kts 172°
2026-04-20 20:05 52.51548 -2.29030 1289 ft 90 kts 170°
2026-04-20 20:05 52.50919 -2.29042 1316 ft 91 kts 169°
2026-04-20 20:06 52.50275 -2.29042 1322 ft 92 kts 168°
2026-04-20 20:06 52.49629 -2.29032 1375 ft 94 kts 171°
2026-04-20 20:06 52.48990 -2.29030 1422 ft 90 kts 166°
2026-04-20 20:06 52.48625 -2.28481 1380 ft 73 kts 89°
2026-04-20 20:07 52.48822 -2.27712 1301 ft 74 kts 64°
2026-04-20 20:07 52.49050 -2.26968 1210 ft 69 kts 68°
2026-04-20 20:07 52.49227 -2.26267 1139 ft 66 kts 73°
2026-04-20 20:07 52.49378 -2.25530 1065 ft 69 kts 73°
2026-04-20 20:08 52.49653 -2.24922 949 ft 71 kts 32°
2026-04-20 20:08 52.50182 -2.24908 793 ft 79 kts 359°
2026-04-20 20:08 52.50688 -2.25200 594 ft 77 kts 341°
2026-04-20 20:08 52.51158 -2.25532 354 ft 70 kts 339°
2026-04-20 20:09 52.51547 -2.25818 283 ft 47 kts 333°
2026-04-20 20:09 52.51899 -2.26055 327 ft 66 kts 348°
2026-04-20 20:09 52.52335 -2.26250 618 ft 65 kts 352°
2026-04-20 20:09 52.52771 -2.26496 852 ft 70 kts 328°
2026-04-20 20:10 52.52934 -2.27263 1075 ft 79 kts 261°
2026-04-20 20:10 52.52861 -2.28203 1254 ft 91 kts 263°
2026-04-20 20:10 52.52593 -2.29129 1286 ft 95 kts 206°
2026-04-20 20:10 52.51954 -2.29255 1285 ft 94 kts 162°
2026-04-20 20:11 52.51320 -2.29083 1320 ft 92 kts 158°
2026-04-20 20:11 52.50693 -2.28880 1347 ft 91 kts 157°
2026-04-20 20:11 52.50066 -2.28639 1363 ft 93 kts 156°
2026-04-20 20:11 52.49441 -2.28373 1395 ft 93 kts 155°
2026-04-20 20:12 52.48888 -2.27972 1405 ft 81 kts 125°
2026-04-20 20:12 52.48829 -2.27149 1388 ft 78 kts 63°
2026-04-20 20:12 52.49150 -2.26508 1302 ft 69 kts 58°
2026-04-20 20:13 52.49659 -2.25191 927 ft 65 kts 59°
2026-04-20 20:13 52.50075 -2.24898 747 ft 73 kts
2026-04-20 20:13 52.50575 -2.25119 580 ft 75 kts 345°
2026-04-20 20:13 52.51048 -2.25455 407 ft 74 kts 345°
2026-04-20 20:14 52.51504 -2.25782 286 ft 63 kts 333°
2026-04-20 20:14 52.51851 -2.26036 281 ft 57 kts 335°
2026-04-20 20:14 52.52262 -2.26316 501 ft 65 kts 351°
2026-04-20 20:14 52.52693 -2.26429 778 ft 61 kts
2026-04-20 20:15 52.53131 -2.26435 1033 ft 63 kts
2026-04-20 20:15 52.53543 -2.26460 1338 ft 60 kts 13°
2026-04-20 20:15 52.53961 -2.26489 1598 ft 60 kts 18°
2026-04-20 20:15 52.54367 -2.26453 1862 ft 60 kts 19°
2026-04-20 20:16 52.54798 -2.26490 2114 ft 63 kts 11°
2026-04-20 20:16 52.55240 -2.26572 2371 ft 63 kts 11°
2026-04-20 20:16 52.55720 -2.26626 2535 ft 82 kts 11°
2026-04-20 20:16 52.56356 -2.26629 2618 ft 95 kts
2026-04-20 20:17 52.57006 -2.26650 2726 ft 91 kts
2026-04-20 20:17 52.57644 -2.26670 2799 ft 87 kts 11°
2026-04-20 20:17 52.58227 -2.26461 2837 ft 87 kts 27°
2026-04-20 20:17 52.58807 -2.26126 2874 ft 88 kts 29°
2026-04-20 20:18 52.59382 -2.25750 2875 ft 91 kts 31°
2026-04-20 20:18 52.59960 -2.25352 2911 ft 90 kts 31°
2026-04-20 20:18 52.60536 -2.24949 2942 ft 90 kts 31°
2026-04-20 20:18 52.61112 -2.24536 2988 ft 90 kts 31°
2026-04-20 20:19 52.61690 -2.24114 3006 ft 92 kts 31°
2026-04-20 20:19 52.62268 -2.23698 3055 ft 91 kts 31°
2026-04-20 20:19 52.62845 -2.23256 3104 ft 91 kts 32°
2026-04-20 20:19 52.63417 -2.22806 3128 ft 92 kts 33°
2026-04-20 20:20 52.63987 -2.22370 3166 ft 90 kts 32°
2026-04-20 20:20 52.64567 -2.21939 3191 ft 90 kts 32°
2026-04-20 20:20 52.65128 -2.21509 3203 ft 91 kts 32°
2026-04-20 20:20 52.65700 -2.21051 3223 ft 90 kts 32°
2026-04-20 20:21 52.66265 -2.20592 3229 ft 91 kts 33°
2026-04-20 20:21 52.66836 -2.20132 3268 ft 90 kts 32°
2026-04-20 20:21 52.67211 -2.19843 3278 ft 90 kts 33°
2026-04-20 20:21 52.67845 -2.19735 3290 ft 97 kts 354°
2026-04-20 20:22 52.68443 -2.20359 3246 ft 108 kts 322°
2026-04-20 20:22 52.68924 -2.21310 3275 ft 107 kts 309°
2026-04-20 20:22 52.69281 -2.22351 3347 ft 102 kts 298°
2026-04-20 20:22 52.69538 -2.23447 3389 ft 103 kts 291°
2026-04-20 20:23 52.69746 -2.24565 3481 ft 102 kts 289°
2026-04-20 20:23 52.69910 -2.25710 3510 ft 104 kts 282°
2026-04-20 20:23 52.70021 -2.26889 3559 ft 103 kts 280°
2026-04-20 20:23 52.70109 -2.28063 3599 ft 103 kts 277°
2026-04-20 20:24 52.70171 -2.29253 3636 ft 104 kts 275°
2026-04-20 20:24 52.70203 -2.30439 3673 ft 105 kts 273°
2026-04-20 20:24 52.70221 -2.31636 3715 ft 104 kts 272°
2026-04-20 20:24 52.70217 -2.32829 3757 ft 104 kts 269°
2026-04-20 20:25 52.70185 -2.34040 3784 ft 104 kts 268°
2026-04-20 20:25 52.70156 -2.35217 3823 ft 103 kts 268°
2026-04-20 20:25 52.70133 -2.36355 3906 ft 100 kts 269°
2026-04-20 20:25 52.70109 -2.37549 3862 ft 108 kts 269°
2026-04-20 20:26 52.70082 -2.38790 3875 ft 107 kts 269°
2026-04-20 20:26 52.70058 -2.40004 3905 ft 107 kts 269°
2026-04-20 20:26 52.70038 -2.41230 3928 ft 105 kts 271°
2026-04-20 20:26 52.70045 -2.42429 3926 ft 108 kts 272°
2026-04-20 20:27 52.70061 -2.43656 3942 ft 106 kts 272°
2026-04-20 20:27 52.70063 -2.44876 3944 ft 106 kts 271°
2026-04-20 20:27 52.70063 -2.46098 3953 ft 107 kts 271°
2026-04-20 20:27 52.70066 -2.47313 3979 ft 106 kts 271°
2026-04-20 20:28 52.70070 -2.48540 3980 ft 106 kts 271°
2026-04-20 20:28 52.70075 -2.49743 3976 ft 107 kts 271°
2026-04-20 20:28 52.70080 -2.50965 3990 ft 106 kts 270°
2026-04-20 20:28 52.70156 -2.52163 3986 ft 105 kts 274°
2026-04-20 20:29 52.69989 -2.53296 3969 ft 102 kts 231°
2026-04-20 20:29 52.69410 -2.53884 3912 ft 99 kts 183°
2026-04-20 20:29 52.68749 -2.53762 3875 ft 94 kts 160°
2026-04-20 20:29 52.68128 -2.53486 3895 ft 91 kts 159°
2026-04-20 20:30 52.67521 -2.53203 3902 ft 92 kts 158°
2026-04-20 20:30 52.66922 -2.52879 3919 ft 90 kts 155°
2026-04-20 20:30 52.66329 -2.52521 3927 ft 91 kts 155°
2026-04-20 20:30 52.65720 -2.52208 3937 ft 92 kts 159°
2026-04-20 20:31 52.65111 -2.51947 3961 ft 92 kts 161°
2026-04-20 20:31 52.64486 -2.51724 3964 ft 92 kts 163°
2026-04-20 20:31 52.63850 -2.51522 3967 ft 93 kts 164°
2026-04-20 20:31 52.63217 -2.51339 3976 ft 92 kts 165°
2026-04-20 20:32 52.62577 -2.51173 3987 ft 93 kts 165°
2026-04-20 20:32 52.61945 -2.51017 4012 ft 93 kts 166°
2026-04-20 20:32 52.61307 -2.50844 4009 ft 93 kts 160°
2026-04-20 20:32 52.60708 -2.50480 4009 ft 92 kts 151°
2026-04-20 20:33 52.60136 -2.50010 4001 ft 92 kts 148°
2026-04-20 20:33 52.59582 -2.49482 3999 ft 93 kts 142°
2026-04-20 20:33 52.59067 -2.48897 4028 ft 90 kts 137°
2026-04-20 20:33 52.58588 -2.48264 4090 ft 86 kts 132°
2026-04-20 20:34 52.58110 -2.47639 4131 ft 88 kts 137°
2026-04-20 20:34 52.57608 -2.47056 4176 ft 88 kts 139°
2026-04-20 20:34 52.57085 -2.46507 4190 ft 91 kts 142°
2026-04-20 20:34 52.56544 -2.45980 4225 ft 90 kts 141°
2026-04-20 20:35 52.56024 -2.45411 4248 ft 89 kts 139°
2026-04-20 20:35 52.55553 -2.44771 4265 ft 89 kts 131°
2026-04-20 20:35 52.55102 -2.44063 4265 ft 91 kts 130°
2026-04-20 20:35 52.54653 -2.43327 4279 ft 90 kts 129°
2026-04-20 20:36 52.54218 -2.42606 4298 ft 89 kts 128°
2026-04-20 20:36 52.53787 -2.41881 4317 ft 89 kts 128°
2026-04-20 20:36 52.53350 -2.41157 4335 ft 89 kts 128°
2026-04-20 20:36 52.52930 -2.40405 4322 ft 89 kts 124°
2026-04-20 20:37 52.52531 -2.39613 4305 ft 89 kts 123°
2026-04-20 20:37 52.52148 -2.38812 4298 ft 89 kts 121°
2026-04-20 20:37 52.51781 -2.37989 4274 ft 90 kts 120°
2026-04-20 20:37 52.51469 -2.37180 4171 ft 82 kts 114°
2026-04-20 20:38 52.51208 -2.36351 3995 ft 81 kts 111°
2026-04-20 20:38 52.50962 -2.35516 3809 ft 81 kts 110°
2026-04-20 20:38 52.50750 -2.34674 3596 ft 79 kts 106°
2026-04-20 20:38 52.50576 -2.33828 3348 ft 75 kts 104°
2026-04-20 20:39 52.50476 -2.33034 3136 ft 69 kts 96°
2026-04-20 20:39 52.50439 -2.32271 2923 ft 66 kts 90°
2026-04-20 20:39 52.50445 -2.31519 2682 ft 65 kts 88°
2026-04-20 20:39 52.50470 -2.30774 2490 ft 64 kts 86°
2026-04-20 20:40 52.50512 -2.30058 2345 ft 62 kts 84°
2026-04-20 20:40 52.50557 -2.29354 2227 ft 63 kts 85°
2026-04-20 20:40 52.50638 -2.28629 2182 ft 68 kts 78°
2026-04-20 20:40 52.50767 -2.27839 2193 ft 73 kts 78°
2026-04-20 20:41 52.50874 -2.27030 2265 ft 72 kts 81°
2026-04-20 20:41 52.50945 -2.26226 2337 ft 73 kts 84°
2026-04-20 20:41 52.51070 -2.25413 2349 ft 74 kts 67°
2026-04-20 20:41 52.51407 -2.24793 2254 ft 77 kts 36°
2026-04-20 20:42 52.51985 -2.24873 2008 ft 99 kts 337°
2026-04-20 20:42 52.52280 -2.25910 1775 ft 108 kts 265°
2026-04-20 20:42 52.52075 -2.27094 1435 ft 108 kts 249°
2026-04-20 20:42 52.51670 -2.27972 1266 ft 93 kts 197°
2026-04-20 20:43 52.51095 -2.28050 1200 ft 80 kts 163°
2026-04-20 20:43 52.50539 -2.27888 1237 ft 81 kts 159°
2026-04-20 20:43 52.49977 -2.27735 1321 ft 83 kts 162°
2026-04-20 20:43 52.49413 -2.27606 1385 ft 78 kts 151°
2026-04-20 20:44 52.49136 -2.26971 1331 ft 72 kts 84°
2026-04-20 20:44 52.49311 -2.26282 1214 ft 67 kts 64°
2026-04-20 20:44 52.49538 -2.25624 1110 ft 64 kts 66°
2026-04-20 20:44 52.49798 -2.25073 968 ft 67 kts 15°
2026-04-20 20:45 52.50292 -2.24998 715 ft 73 kts
2026-04-20 20:45 52.50784 -2.25285 512 ft 72 kts 341°
2026-04-20 20:45 52.51235 -2.25593 337 ft 69 kts 342°
2026-04-20 20:45 52.51619 -2.25846 279 ft 45 kts 329°
2026-04-20 20:46 52.51847 -2.26034 281 ft 30 kts 337°
2026-04-20 20:46 52.52000 -2.26145 282 ft 13 kts 337°
2026-04-20 20:46 52.51981 -2.26230 280 ft 14 kts 217°
2026-04-20 20:46 52.51884 -2.26350 275 ft 22 kts 217°
2026-04-20 20:47 52.51744 -2.26521 265 ft 27 kts 217°
2026-04-20 20:47 52.51606 -2.26690 261 ft 21 kts 218°
2026-04-20 20:47 52.51547 -2.26701 262 ft 7 kts 106°
2026-04-20 20:47 52.51541 -2.26628 265 ft 7 kts 95°
2026-04-20 20:48 52.51533 -2.26512 267 ft 13 kts 97°
2026-04-20 20:48 52.51525 -2.26384 269 ft 10 kts 95°
2026-04-20 20:48 52.51519 -2.26292 270 ft 7 kts 95°
2026-04-20 20:48 52.51514 -2.26199 271 ft 8 kts 89°
2026-04-20 20:49 52.51528 -2.26138 271 ft 5 kts 68°
2026-04-20 20:49 52.51523 -2.26109 272 ft 1 kts 242°
2026-04-20 20:49 52.51523 -2.26112 272 ft 0 kts 281°